AirNav   Everest Fuels
 
 908 users online  

19TN Ferraraccio Field Airport
Clarksville, Tennessee, USA

GOING TO CLARKSVILLE?


FAA INFORMATION EFFECTIVE 26 MARCH 2020

Location

FAA Identifier: 19TN
Lat/Long: 36-29-58.0000N 087-11-25.0000W
36-29.966667N 087-11.416667W
36.4994444,-87.1902778
(estimated)
Elevation: 620 ft. / 189 m (estimated)
From city: 8 miles SE of CLARKSVILLE, TN
Time zone: UTC -5 (UTC -6 during Standard Time)
Zip code: 37043

Airport Operations

Airport use: Private use. Permission required prior to landing
Activation date: 09/2004
Control tower: no
ARTCC: MEMPHIS CENTER
FSS: JACKSON FLIGHT SERVICE STATION
Attendance: UNATNDD
Segmented circle: no

Airport Communications

WX ASOS at CKV (13 nm NW): 134.575 (931-431-3045)
WX AWOS-3 at M91 (13 nm E): 120.675 (615-384-8206)
WX AWOS-3 at EOD (15 nm W): PHONE 270-956-3100

Nearby radio navigation aids

VOR radial/distance  VOR name  Freq  Var
CKVr125/13.0CLARKSVILLE VOR/DME110.6001W
BNAr314/32.7NASHVILLE VORTAC114.1002W

 
NDB name  Hdg/Dist  Freq  Var  ID
SNUFF101/9.633501WCK -.-. -.-
DICKSON029/25.220301WDMZ -.. -- --..

Airport Services

Runway Information

Runway 8/26

Dimensions: 2200 x 40 ft. / 671 x 12 m
Surface: turf
RUNWAY 8  RUNWAY 26
Traffic pattern: leftleft

Airport Ownership and Management from official FAA records

Ownership: Privately-owned
Owner: CHRIS & ANNA FERRARACCIO
197 BAGWELL ROAD
CLARKSVILLE, TN 37043
Phone 931-302-4985
Manager: CHRIS FERRARACCIO
197 BAGWELL ROAD
CLARKSVILLE, TN 37043
Phone 931-302-4985

Airport Operational Statistics

Aircraft based on the field: 1
Single engine airplanes: 1
    

Additional Remarks

FOR CD CTC NASHVILLE APCH AT 615-695-4522.

Instrument Procedures

There are no published instrument procedures at 19TN.

Some nearby airports with instrument procedures:

KCKV - Outlaw Field Airport (13 nm NW)
M91 - Springfield Robertson County Airport (13 nm E)
KEOD - Sabre Army Airfield (Fort Campbell) (15 nm W)
KHOP - Campbell Army Airfield (Fort Campbell) (18 nm NW)
KJWN - John C Tune Airport (24 nm SE)
 
Loc | Ops | Rwys | IFR | FBO | Links
Com | Nav | Svcs | Stats | Notes
Area around 19TN (Ferraraccio Field Airport)
 
Road maps at: MapQuest Bing Google
 
Aerial photo
WARNING: Photo may not be current or correct
Aerial photo of 19TN (Ferraraccio Field Airport)
Photo taken 26-Sep-2006

Do you have a better or more recent aerial photo of Ferraraccio Field Airport that you would like to share? If so, please send us your photo.

 
Sectional chart

 
Airport distance calculator
Flying to Ferraraccio Field Airport? Find the distance to fly.

From to 19TN

Sunrise and sunset
Times for 04-Apr-2020
 Local
(UTC-5)
 Zulu
(UTC)
Morning civil twilight06:0411:04
Sunrise06:3011:30
Sunset19:1300:13
Evening civil twilight19:3900:39

Current date and time
Zulu (UTC)  04-Apr-2020 20:45:07
Local (UTC-5)  04-Apr-2020 15:45:07
 
METAR
KCKV 
13nm NW 
041952Z AUTO 34006KT 10SM CLR 22/12 A3000 RMK AO2 SLP155 T02170117
KM91 
13nm E 
042030Z AUTO 05003G10KT 10SM CLR 22/09 A2997 RMK A01
KEOD 
15nm W 
041958Z AUTO 00000KT 10SM CLR 21/09 A2999 RMK AO2 SLP156 T02130093
KHOP 
18nm NW 
041956Z 01006KT 10SM CLR 21/11 A2999 RMK AO2A SLP155 T02110106
KM02 
25nm SW 
042035Z AUTO 34006KT 1 1/4SM HZ CLR 22/08 A2996 RMK A01
TAF
KCKV 
13nm NW 
041737Z 0418/0518 34005KT P6SM SCT070 BKN250 FM050000 34003KT P6SM BKN070
KHOP 
18nm NW 
041600Z 0416/0522 35006KT 9999 FEW080 QNH3002INS BECMG 0502/0503 36006KT 9999 OVC040 QNH3003INS BECMG 0507/0508 36006KT 8000 BR OVC010 QNH3007INS BECMG 0514/0516 03006KT 9999 NSW BKN030 QNH3008INS TX19/0420Z TN10/0512Z
NOTAMs
Click for the latest NOTAMs
NOTAMs are issued by the DoD/FAA and will open in a separate window not controlled by AirNav.

 

 
 

Would you like to see your business listed on this page?

 If your business provides an interesting product or service to pilots, flight crews, aircraft, or users of the Ferraraccio Field Airport, you should consider listing it here.  To start the listing process, click on the button below
 
Add a business
 

Other Pages about Ferraraccio Field Airport

Update a link
 
Copyright © AirNav, LLC. All rights reserved. Privacy Policy  Contact